• In Netherlands
  • List of Countries
  • For 7 days
  • Water Temperature
  • Satellite Maps
  • Weather Map
  • Weather Widgets
  • user-avatar
    Login

    Hourly Weather Andora

    Today, 23 February, Thursday

    Time Temperature Precipitation Wind Pressure Humidity
    00:00 0°C° 0 mm 1 mps 622 mmHg 79%
    01:00 0°C° 0 mm 1 mps 622 mmHg 76%
    02:00 0°C° 0 mm 1 mps 621 mmHg 73%
    03:00 0°C° 0 mm 1 mps 621 mmHg 70%
    04:00 0°C° 0 mm 1 mps 621 mmHg 67%
    05:00 0°C° 0 mm 1 mps 621 mmHg 64%
    06:00 0°C° 0 mm 1 mps 621 mmHg 62%
    07:00 +3°C° 0 mm 1 mps 622 mmHg 59%
    08:00 +5°C° 0 mm 1 mps 623 mmHg 56%
    09:00 +8°C° 0 mm 1 mps 624 mmHg 53%
    10:00 +9°C° 0 mm 1 mps 624 mmHg 51%
    11:00 +11°C° 0 mm 1 mps 625 mmHg 49%
    12:00 +12°C° 0 mm 2 mps 625 mmHg 47%
    13:00 +12°C° 0 mm 2 mps 625 mmHg 50%
    14:00 +12°C° 0 mm 2 mps 624 mmHg 52%
    15:00 +12°C° 0 mm 2 mps 624 mmHg 54%
    16:00 +9°C° 0 mm 1 mps 622 mmHg 65%
    17:00 +5°C° 0 mm 1 mps 621 mmHg 75%
    18:00 +2°C° 0 mm 1 mps 619 mmHg 85%
    19:00 +2°C° 0 mm 1 mps 620 mmHg 87%
    20:00 +1°C° 0 mm 1 mps 620 mmHg 88%
    21:00 +1°C° 0 mm 1 mps 620 mmHg 89%
    22:00 +1°C° 0 mm 1 mps 620 mmHg 89%
    23:00 +2°C° 0 mm 1 mps 621 mmHg 90%

    Tomorrow, 24 February, Friday

    Time Temperature Precipitation Wind Pressure Humidity
    00:00 +1°C° 0 mm 2 mps 621 mmHg 90%
    01:00 +1°C° 0 mm 2 mps 621 mmHg 89%
    02:00 +1°C° 0 mm 2 mps 620 mmHg 88%
    03:00 +1°C° 0 mm 2 mps 620 mmHg 87%
    04:00 -1°C° 0 mm 2 mps 620 mmHg 88%
    05:00 -1°C° 0 mm 2 mps 620 mmHg 90%
    06:00 -1°C° 0 mm 2 mps 620 mmHg 92%
    07:00 0°C° 0.1 mm 3 mps 621 mmHg 88%
    08:00 +1°C° 0.1 mm 3 mps 621 mmHg 85%
    09:00 +2°C° 0.1 mm 3 mps 622 mmHg 82%
    10:00 +2°C° 0 mm 3 mps 622 mmHg 78%
    11:00 +2°C° 0 mm 3 mps 622 mmHg 74%
    12:00 +3°C° 0 mm 4 mps 623 mmHg 70%
    13:00 +3°C° 0 mm 4 mps 622 mmHg 69%
    14:00 +3°C° 0 mm 4 mps 622 mmHg 67%
    15:00 +1°C° 0 mm 4 mps 622 mmHg 66%
    16:00 0°C° 0 mm 4 mps 622 mmHg 71%
    17:00 -2°C° 0 mm 4 mps 622 mmHg 76%
    18:00 -3°C° 0 mm 4 mps 622 mmHg 81%
    19:00 -4°C° 0 mm 3 mps 622 mmHg 80%
    20:00 -4°C° 0 mm 3 mps 622 mmHg 79%
    21:00 -4°C° 0 mm 3 mps 623 mmHg 78%
    22:00 -5°C° 0 mm 3 mps 623 mmHg 79%
    23:00 -5°C° 0 mm 3 mps 623 mmHg 79%

    Day after tomorrow, 25 February, Saturday

    Time Temperature Precipitation Wind Pressure Humidity
    00:00 -6°C° 0 mm 3 mps 623 mmHg 79%
    01:00 -6°C° 0 mm 3 mps 622 mmHg 78%
    02:00 -5°C° 0 mm 2 mps 622 mmHg 77%
    03:00 -5°C° 0 mm 2 mps 622 mmHg 76%
    04:00 -5°C° 0 mm 2 mps 622 mmHg 74%
    05:00 -6°C° 0 mm 2 mps 622 mmHg 73%
    06:00 -6°C° 0 mm 2 mps 622 mmHg 71%
    07:00 -1°C° 0 mm 1 mps 623 mmHg 62%
    08:00 +1°C° 0 mm 1 mps 625 mmHg 54%
    09:00 +4°C° 0 mm 1 mps 626 mmHg 45%
    10:00 +5°C° 0 mm 1 mps 626 mmHg 42%
    11:00 +7°C° 0 mm 1 mps 627 mmHg 40%
    12:00 +8°C° 0 mm 1 mps 627 mmHg 37%
    13:00 +7°C° 0 mm 2 mps 627 mmHg 40%
    14:00 +7°C° 0 mm 2 mps 627 mmHg 43%
    15:00 +7°C° 0 mm 2 mps 626 mmHg 46%
    16:00 +4°C° 0 mm 2 mps 625 mmHg 58%
    17:00 +2°C° 0 mm 1 mps 625 mmHg 70%
    18:00 0°C° 0 mm 1 mps 624 mmHg 82%
    19:00 0°C° 0 mm 1 mps 624 mmHg 82%
    20:00 -1°C° 0 mm 1 mps 624 mmHg 83%
    21:00 -1°C° 0 mm 1 mps 624 mmHg 83%
    22:00 -1°C° 0 mm 1 mps 624 mmHg 83%
    23:00 -1°C° 0 mm 1 mps 624 mmHg 83%

    26 February, Sunday

    Time Temperature Precipitation Wind Pressure Humidity
    00:00 -1°C° 0 mm 1 mps 624 mmHg 83%
    01:00 -1°C° 0 mm 1 mps 624 mmHg 82%
    02:00 -1°C° 0 mm 1 mps 623 mmHg 81%
    03:00 -2°C° 0 mm 1 mps 623 mmHg 80%
    04:00 -2°C° 0 mm 1 mps 623 mmHg 79%
    05:00 -2°C° 0 mm 1 mps 623 mmHg 79%
    06:00 -2°C° 0 mm 1 mps 623 mmHg 78%
    07:00 +1°C° 0 mm 1 mps 625 mmHg 69%
    08:00 +2°C° 0 mm 0 mps 626 mmHg 60%
    09:00 +5°C° 0 mm 0 mps 627 mmHg 51%
    10:00 +7°C° 0 mm 1 mps 627 mmHg 49%
    11:00 +9°C° 0 mm 1 mps 627 mmHg 47%
    12:00 +10°C° 0 mm 1 mps 628 mmHg 44%
    13:00 +10°C° 0 mm 1 mps 627 mmHg 47%
    14:00 +8°C° 0 mm 2 mps 627 mmHg 49%
    15:00 +8°C° 0 mm 2 mps 626 mmHg 52%
    16:00 +6°C° 0 mm 1 mps 625 mmHg 64%
    17:00 +4°C° 0 mm 1 mps 623 mmHg 77%
    18:00 +1°C° 0 mm 1 mps 622 mmHg 89%
    19:00 0°C° 0 mm 1 mps 622 mmHg 90%
    20:00 0°C° 0 mm 1 mps 622 mmHg 90%
    21:00 -2°C° 0 mm 0 mps 622 mmHg 91%
    22:00 -1°C° 0 mm 1 mps 622 mmHg 90%
    23:00 -1°C° 0 mm 1 mps 621 mmHg 90%

    27 February, Monday

    Time Temperature Precipitation Wind Pressure Humidity
    00:00 -1°C° 0 mm 1 mps 621 mmHg 90%
    01:00 -1°C° 0 mm 1 mps 621 mmHg 88%
    02:00 -1°C° 0 mm 1 mps 620 mmHg 86%
    03:00 -1°C° 0 mm 1 mps 620 mmHg 84%
    04:00 -1°C° 0 mm 1 mps 620 mmHg 81%
    05:00 -1°C° 0 mm 1 mps 620 mmHg 79%
    06:00 -1°C° 0 mm 1 mps 620 mmHg 76%
    07:00 +1°C° 0 mm 1 mps 621 mmHg 70%
    08:00 +4°C° 0 mm 1 mps 621 mmHg 65%
    09:00 +6°C° 0 mm 1 mps 622 mmHg 60%
    10:00 +6°C° 0 mm 2 mps 623 mmHg 56%
    11:00 +7°C° 0 mm 2 mps 623 mmHg 53%
    12:00 +9°C° 0 mm 2 mps 623 mmHg 50%
    13:00 +9°C° 0 mm 2 mps 622 mmHg 51%
    14:00 +9°C° 0 mm 2 mps 622 mmHg 52%
    15:00 +8°C° 0 mm 2 mps 621 mmHg 53%
    16:00 +6°C° 0 mm 2 mps 621 mmHg 65%
    17:00 +4°C° 0 mm 1 mps 620 mmHg 77%
    18:00 +2°C° 0 mm 1 mps 619 mmHg 89%
    19:00 +1°C° 0 mm 1 mps 619 mmHg 89%
    20:00 +1°C° 0 mm 1 mps 619 mmHg 90%
    21:00 +1°C° 0 mm 1 mps 619 mmHg 90%
    22:00 0°C° 0 mm 1 mps 618 mmHg 89%
    23:00 0°C° 0 mm 1 mps 618 mmHg 87%

    28 February, Tuesday

    Time Temperature Precipitation Wind Pressure Humidity
    00:00 0°C° 0 mm 1 mps 618 mmHg 85%
    01:00 0°C° 0 mm 1 mps 617 mmHg 84%
    02:00 -1°C° 0 mm 1 mps 617 mmHg 83%
    03:00 -1°C° 0 mm 1 mps 616 mmHg 83%
    04:00 -1°C° 0 mm 1 mps 616 mmHg 83%
    05:00 -1°C° 0 mm 1 mps 616 mmHg 83%
    06:00 -1°C° 0 mm 1 mps 616 mmHg 83%
    07:00 -2°C° 0.1 mm 2 mps 617 mmHg 78%
    08:00 -1°C° 0.1 mm 2 mps 618 mmHg 73%
    09:00 +1°C° 0.1 mm 3 mps 619 mmHg 67%
    10:00 +1°C° 0.5 mm 3 mps 619 mmHg 68%
    11:00 +1°C° 0.5 mm 3 mps 619 mmHg 68%
    12:00 +1°C° 0.5 mm 3 mps 619 mmHg 68%
    13:00 +2°C° 0.2 mm 3 mps 619 mmHg 65%
    14:00 +3°C° 0.2 mm 3 mps 619 mmHg 61%
    15:00 +3°C° 0.2 mm 3 mps 619 mmHg 57%
    16:00 +1°C° 0.1 mm 3 mps 619 mmHg 64%
    17:00 +1°C° 0.1 mm 2 mps 619 mmHg 72%
    18:00 -2°C° 0.1 mm 2 mps 618 mmHg 79%
    19:00 -2°C° 0 mm 2 mps 618 mmHg 82%
    20:00 -3°C° 0 mm 2 mps 618 mmHg 85%
    21:00 -1°C° 0 mm 1 mps 618 mmHg 88%
    22:00 -2°C° 0 mm 1 mps 618 mmHg 88%
    23:00 -4°C° 0 mm 2 mps 618 mmHg 88%
    Show more